| time (UTC) | temp C | wind direction | speed KPH | gust KPH | rain 1hr cm | rain 24hr cm | rain mn cm | humidity % | barometer mb |
| 20260510071452 | 11 | 342 | 3.2 | 3.2 | 0.00 | 0.00 | 0.00 | 74 | 1013.5 |
| 20260510070950 | 10 | 255 | 1.6 | 4.8 | 0.00 | 0.00 | 0.00 | 76 | 1013.5 |
| 20260510070447 | 10 | 74 | 1.6 | 3.2 | 0.00 | 0.00 | 0.00 | 78 | 1013.7 |
| 20260510065943 | 10 | 88 | 0.0 | 4.8 | 0.00 | 0.00 | 0.00 | 76 | 1013.5 |
| 20260510065440 | 12 | 108 | 3.2 | 4.8 | 0.00 | 0.00 | 0.00 | 69 | 1013.4 |
| 20260510064936 | 12 | 37 | 1.6 | 3.2 | 0.00 | 0.00 | 0.00 | 67 | 1013.4 |
| 20260510064434 | 13 | 279 | 4.8 | 6.4 | 0.00 | 0.00 | 0.00 | 66 | 1013.2 |
| 20260510063930 | 12 | 292 | 4.8 | 4.8 | 0.00 | 0.00 | 0.00 | 69 | 1013.1 |
| 20260510063426 | 12 | 281 | 6.4 | 6.4 | 0.00 | 0.00 | 0.00 | 68 | 1013.1 |
| 20260510062925 | 12 | 278 | 4.8 | 6.4 | 0.00 | 0.00 | 0.00 | 69 | 1013.1 |
| 20260510062425 | 12 | 286 | 4.8 | 4.8 | 0.00 | 0.00 | 0.00 | 68 | 1013.1 |
| 20260510061920 | 12 | 287 | 4.8 | 9.7 | 0.00 | 0.00 | 0.00 | 68 | 1013.1 |
| 20260510061417 | 11 | 193 | 3.2 | 4.8 | 0.00 | 0.00 | 0.00 | 69 | 1013.0 |
| 20260510060913 | 11 | 277 | 3.2 | 6.4 | 0.00 | 0.00 | 0.00 | 70 | 1013.0 |
| 20260510060410 | 11 | 283 | 4.8 | 6.4 | 0.00 | 0.00 | 0.00 | 70 | 1013.1 |
| 20260510055906 | 10 | 268 | 6.4 | 9.7 | 0.00 | 0.00 | 0.00 | 73 | 1013.1 |
| 20260510055402 | 10 | 281 | 4.8 | 6.4 | 0.00 | 0.00 | 0.00 | 75 | 1013.2 |
| 20260510054900 | 10 | 61 | 3.2 | 6.4 | 0.00 | 0.00 | 0.00 | 76 | 1013.1 |
| 20260510054355 | 10 | 293 | 4.8 | 4.8 | 0.00 | 0.00 | 0.00 | 76 | 1013.2 |
| 20260510053851 | 10 | 345 | 3.2 | 4.8 | 0.00 | 0.00 | 0.00 | 77 | 1013.1 |
| 20260510053346 | 10 | 108 | 1.6 | 3.2 | 0.00 | 0.00 | 0.00 | 76 | 1013.2 |
| 20260510052843 | 11 | 79 | 1.6 | 3.2 | 0.00 | 0.00 | 0.00 | 73 | 1013.4 |
| 20260510052338 | 11 | 100 | 1.6 | 3.2 | 0.00 | 0.00 | 0.00 | 71 | 1013.2 |
| 20260510051835 | 12 | 66 | 1.6 | 3.2 | 0.00 | 0.00 | 0.00 | 68 | 1013.4 |
| 20260510051332 | 12 | 71 | 1.6 | 3.2 | 0.00 | 0.00 | 0.00 | 66 | 1013.4 |
| 20260510050829 | 12 | 83 | 1.6 | 1.6 | 0.00 | 0.00 | 0.00 | 67 | 1013.6 |
| 20260510050325 | 12 | 67 | 1.6 | 3.2 | 0.00 | 0.00 | 0.00 | 67 | 1013.5 |
| 20260510045823 | 12 | 43 | 1.6 | 3.2 | 0.00 | 0.00 | 0.00 | 67 | 1013.4 |
| 20260510045319 | 12 | 25 | 1.6 | 3.2 | 0.00 | 0.00 | 0.00 | 68 | 1013.6 |
| 20260510044816 | 12 | 27 | 1.6 | 4.8 | 0.00 | 0.00 | 0.00 | 68 | 1013.6 |
| 20260510044313 | 12 | 330 | 1.6 | 6.4 | 0.00 | 0.00 | 0.00 | 67 | 1013.6 |
| 20260510043810 | 12 | 267 | 3.2 | 4.8 | 0.00 | 0.00 | 0.00 | 67 | 1013.6 |
| 20260510043306 | 12 | 32 | 1.6 | 3.2 | 0.00 | 0.00 | 0.00 | 68 | 1013.5 |
| 20260510042804 | 12 | 56 | 1.6 | 3.2 | 0.00 | 0.00 | 0.00 | 68 | 1013.5 |
| 20260510042259 | 12 | 49 | 3.2 | 4.8 | 0.00 | 0.00 | 0.00 | 68 | 1013.5 |
| 20260510041755 | 12 | 187 | 1.6 | 3.2 | 0.00 | 0.00 | 0.00 | 67 | 1013.5 |
| 20260510041253 | 11 | 248 | 4.8 | 6.4 | 0.00 | 0.00 | 0.00 | 68 | 1013.4 |
| 20260510040750 | 11 | 264 | 3.2 | 4.8 | 0.00 | 0.00 | 0.00 | 69 | 1013.3 |
| 20260510040242 | 11 | 331 | 3.2 | 4.8 | 0.00 | 0.00 | 0.00 | 69 | 1013.5 |
| 20260510035737 | 12 | 268 | 3.2 | 4.8 | 0.00 | 0.00 | 0.00 | 68 | 1013.4 |
| 20260510035233 | 11 | 35 | 1.6 | 3.2 | 0.00 | 0.00 | 0.00 | 69 | 1013.4 |
| 20260510034729 | 11 | 86 | 0.0 | 3.2 | 0.00 | 0.00 | 0.00 | 69 | 1013.4 |
| 20260510034228 | 11 | 85 | 0.0 | 1.6 | 0.00 | 0.00 | 0.00 | 69 | 1013.5 |
| 20260510033722 | 12 | 98 | 0.0 | 0.0 | 0.00 | 0.00 | 0.00 | 67 | 1013.3 |
| 20260510033221 | 12 | 100 | 1.6 | 3.2 | 0.00 | 0.00 | 0.00 | 66 | 1013.4 |
| 20260510032717 | 12 | 93 | 0.0 | 1.6 | 0.00 | 0.00 | 0.00 | 66 | 1013.3 |
| 20260510032213 | 12 | 94 | 1.6 | 1.6 | 0.00 | 0.00 | 0.00 | 65 | 1013.4 |
| 20260510031707 | 12 | 80 | 0.0 | 1.6 | 0.00 | 0.00 | 0.00 | 64 | 1013.4 |
| 20260510031204 | 12 | 88 | 0.0 | 1.6 | 0.00 | 0.00 | 0.00 | 63 | 1013.2 |
| 20260510030658 | 13 | 84 | 0.0 | 0.0 | 0.00 | 0.00 | 0.00 | 62 | 1013.2 |
| 20260510030156 | 14 | 85 | 0.0 | 1.6 | 0.00 | 0.00 | 0.00 | 60 | 1013.2 |
| 20260510025653 | 14 | 50 | 1.6 | 3.2 | 0.00 | 0.00 | 0.00 | 58 | 1013.0 |
| 20260510025150 | 15 | 356 | 3.2 | 3.2 | 0.00 | 0.00 | 0.00 | 58 | 1013.1 |
| 20260510024647 | 15 | 90 | 3.2 | 3.2 | 0.00 | 0.00 | 0.00 | 57 | 1013.1 |
| 20260510024143 | 15 | 71 | 1.6 | 3.2 | 0.00 | 0.00 | 0.00 | 56 | 1012.9 |
| 20260510023639 | 14 | 274 | 3.2 | 4.8 | 0.00 | 0.00 | 0.00 | 57 | 1013.1 |
| 20260510023137 | 14 | 259 | 3.2 | 3.2 | 0.00 | 0.00 | 0.00 | 59 | 1012.9 |
| 20260510022636 | 13 | 286 | 3.2 | 4.8 | 0.00 | 0.00 | 0.00 | 61 | 1012.9 |
| 20260510022132 | 13 | 336 | 3.2 | 3.2 | 0.00 | 0.00 | 0.00 | 63 | 1012.9 |
| 20260510021627 | 13 | 73 | 0.0 | 0.0 | 0.00 | 0.00 | 0.00 | 63 | 1012.7 |
| 20260510021125 | 13 | 73 | 0.0 | 0.0 | 0.00 | 0.00 | 0.00 | 62 | 1012.6 |
| 20260510020619 | 13 | 73 | 0.0 | 0.0 | 0.00 | 0.00 | 0.00 | 60 | 1012.5 |
| 20260510020115 | 15 | 85 | 0.0 | 0.0 | 0.00 | 0.00 | 0.00 | 57 | 1012.5 |
| 20260510015612 | 15 | 85 | 0.0 | 3.2 | 0.00 | 0.00 | 0.00 | 55 | 1012.3 |
| 20260510015108 | 16 | 91 | 0.0 | 4.8 | 0.00 | 0.00 | 0.00 | 53 | 1012.3 |
| 20260510014604 | 16 | 284 | 4.8 | 6.4 | 0.00 | 0.00 | 0.00 | 52 | 1012.0 |
| 20260510014102 | 16 | 320 | 3.2 | 6.4 | 0.00 | 0.00 | 0.00 | 52 | 1012.1 |
| 20260510013601 | 16 | 269 | 3.2 | 4.8 | 0.00 | 0.00 | 0.00 | 53 | 1012.1 |
| 20260510013058 | 16 | 39 | 1.6 | 3.2 | 0.00 | 0.00 | 0.00 | 54 | 1012.2 |
| 20260510012557 | 16 | 351 | 3.2 | 3.2 | 0.00 | 0.00 | 0.00 | 53 | 1011.8 |
| 20260510012054 | 16 | 329 | 1.6 | 3.2 | 0.00 | 0.00 | 0.00 | 53 | 1011.8 |
| 20260510011553 | 16 | 17 | 1.6 | 4.8 | 0.00 | 0.00 | 0.00 | 54 | 1011.5 |
| 20260510011049 | 16 | 2 | 1.6 | 4.8 | 0.00 | 0.00 | 0.00 | 53 | 1011.5 |
| 20260510010546 | 16 | 12 | 3.2 | 4.8 | 0.00 | 0.00 | 0.00 | 53 | 1011.5 |
| 20260510010043 | 16 | 236 | 3.2 | 4.8 | 0.00 | 0.00 | 0.00 | 54 | 1011.3 |
| 20260510005539 | 16 | 24 | 1.6 | 4.8 | 0.00 | 0.00 | 0.00 | 53 | 1011.2 |
| 20260510005037 | 16 | 23 | 3.2 | 4.8 | 0.00 | 0.00 | 0.00 | 53 | 1011.2 |
| 20260510004534 | 16 | 66 | 1.6 | 3.2 | 0.00 | 0.00 | 0.00 | 53 | 1011.3 |
| 20260510004032 | 16 | 351 | 1.6 | 4.8 | 0.00 | 0.00 | 0.00 | 52 | 1011.0 |
| 20260510003528 | 16 | 4 | 3.2 | 3.2 | 0.00 | 0.00 | 0.00 | 51 | 1010.9 |
| 20260510003024 | 16 | 1 | 1.6 | 3.2 | 0.00 | 0.00 | 0.00 | 51 | 1010.9 |
| 20260510002519 | 17 | 53 | 1.6 | 4.8 | 0.00 | 0.00 | 0.00 | 51 | 1010.7 |
| 20260510002017 | 17 | 25 | 3.2 | 3.2 | 0.00 | 0.00 | 0.00 | 51 | 1010.8 |
| 20260510001514 | 17 | 338 | 3.2 | 3.2 | 0.00 | 0.00 | 0.00 | 50 | 1010.5 |
| 20260510001012 | 18 | 356 | 3.2 | 3.2 | 0.00 | 0.00 | 0.00 | 48 | 1010.5 |
| 20260510000512 | 18 | 4 | 1.6 | 3.2 | 0.00 | 0.00 | 0.00 | 47 | 1010.4 |
| 20260510000010 | 19 | 326 | 3.2 | 4.8 | 0.00 | 0.00 | 0.00 | 45 | 1010.5 |
| 20260509235506 | 20 | 3 | 3.2 | 4.8 | 0.00 | 0.00 | 0.00 | 43 | 1010.5 |
| 20260509235002 | 20 | 265 | 4.8 | 6.4 | 0.00 | 0.00 | 0.00 | 42 | 1010.3 |
| 20260509234459 | 20 | 43 | 1.6 | 3.2 | 0.00 | 0.00 | 0.00 | 41 | 1010.5 |
| 20260509233957 | 20 | 0 | 3.2 | 3.2 | 0.00 | 0.00 | 0.00 | 41 | 1010.4 |
| 20260509233454 | 20 | 1 | 3.2 | 4.8 | 0.00 | 0.00 | 0.00 | 42 | 1010.5 |
| 20260509232950 | 20 | 348 | 3.2 | 4.8 | 0.00 | 0.00 | 0.00 | 42 | 1010.4 |
| 20260509232448 | 20 | 320 | 4.8 | 4.8 | 0.00 | 0.00 | 0.00 | 40 | 1010.4 |
| 20260509231943 | 20 | 320 | 3.2 | 4.8 | 0.00 | 0.00 | 0.00 | 42 | 1010.4 |
| 20260509231440 | 21 | 271 | 3.2 | 4.8 | 0.00 | 0.00 | 0.00 | 43 | 1010.2 |
| 20260509230939 | 20 | 279 | 3.2 | 4.8 | 0.00 | 0.00 | 0.00 | 42 | 1010.3 |
| 20260509230435 | 21 | 292 | 4.8 | 11.3 | 0.00 | 0.00 | 0.00 | 40 | 1010.2 |
| 20260509225931 | 22 | 309 | 3.2 | 4.8 | 0.00 | 0.00 | 0.00 | 40 | 1010.2 |
| 20260509225428 | 21 | 259 | 6.4 | 6.4 | 0.00 | 0.00 | 0.00 | 40 | 1010.4 |
| 20260509224924 | 21 | 291 | 3.2 | 4.8 | 0.00 | 0.00 | 0.00 | 40 | 1010.1 |
| 20260509224419 | 22 | 277 | 6.4 | 6.4 | 0.00 | 0.00 | 0.00 | 37 | 1010.2 |
| 20260509223917 | 23 | 266 | 3.2 | 4.8 | 0.00 | 0.00 | 0.00 | 37 | 1010.1 |
| 20260509223413 | 22 | 267 | 4.8 | 6.4 | 0.00 | 0.00 | 0.00 | 36 | 1010.1 |
| 20260509222911 | 22 | 303 | 3.2 | 6.4 | 0.00 | 0.00 | 0.00 | 38 | 1010.3 |
| 20260509222406 | 22 | 236 | 9.7 | 11.3 | 0.00 | 0.00 | 0.00 | 37 | 1010.3 |
| 20260509221901 | 22 | 297 | 4.8 | 9.7 | 0.00 | 0.00 | 0.00 | 39 | 1010.3 |
| 20260509221359 | 21 | 294 | 4.8 | 11.3 | 0.00 | 0.00 | 0.00 | 37 | 1010.2 |
| 20260509220854 | 21 | 269 | 8.0 | 16.1 | 0.00 | 0.00 | 0.00 | 37 | 1010.1 |
| 20260509220350 | 21 | 309 | 4.8 | 11.3 | 0.00 | 0.00 | 0.00 | 38 | 1010.0 |
| 20260509215846 | 21 | 268 | 9.7 | 12.9 | 0.00 | 0.00 | 0.00 | 36 | 1010.1 |
| 20260509215343 | 22 | 252 | 6.4 | 12.9 | 0.00 | 0.00 | 0.00 | 34 | 1010.0 |
| 20260509214840 | 22 | 215 | 6.4 | 11.3 | 0.00 | 0.00 | 0.00 | 36 | 1010.0 |
| 20260509214337 | 21 | 305 | 6.4 | 14.5 | 0.00 | 0.00 | 0.00 | 35 | 1009.9 |
| 20260509213834 | 22 | 292 | 6.4 | 11.3 | 0.00 | 0.00 | 0.00 | 36 | 1010.0 |
| 20260509213329 | 22 | 277 | 11.3 | 16.1 | 0.00 | 0.00 | 0.00 | 35 | 1009.8 |
| 20260509212827 | 22 | 308 | 3.2 | 12.9 | 0.00 | 0.00 | 0.00 | 34 | 1009.8 |
| 20260509212325 | 22 | 105 | 6.4 | 12.9 | 0.00 | 0.00 | 0.00 | 36 | 1009.8 |
| 20260509211820 | 22 | 286 | 8.0 | 24.1 | 0.00 | 0.00 | 0.00 | 35 | 1009.8 |
| 20260509211317 | 22 | 272 | 4.8 | 14.5 | 0.00 | 0.00 | 0.00 | 35 | 1009.9 |
| 20260509210814 | 22 | 76 | 3.2 | 11.3 | 0.00 | 0.00 | 0.00 | 34 | 1009.7 |
| 20260509210311 | 22 | 171 | 4.8 | 12.9 | 0.00 | 0.00 | 0.00 | 34 | 1009.7 |
| 20260509205810 | 22 | 83 | 3.2 | 3.2 | 0.00 | 0.00 | 0.00 | 36 | 1009.6 |
| 20260509205307 | 22 | 135 | 1.6 | 6.4 | 0.00 | 0.00 | 0.00 | 36 | 1009.5 |
| 20260509204802 | 22 | 217 | 4.8 | 12.9 | 0.00 | 0.00 | 0.00 | 35 | 1009.5 |
| 20260509204258 | 22 | 74 | 3.2 | 6.4 | 0.00 | 0.00 | 0.00 | 36 | 1009.6 |
| 20260509203754 | 22 | 141 | 3.2 | 9.7 | 0.00 | 0.00 | 0.00 | 35 | 1009.6 |
| 20260509203252 | 22 | 140 | 4.8 | 9.7 | 0.00 | 0.00 | 0.00 | 35 | 1009.5 |
| 20260509202748 | 22 | 110 | 1.6 | 6.4 | 0.00 | 0.00 | 0.00 | 35 | 1009.3 |
| 20260509202244 | 22 | 90 | 3.2 | 6.4 | 0.00 | 0.00 | 0.00 | 35 | 1009.5 |
| 20260509201744 | 22 | 136 | 3.2 | 6.4 | 0.00 | 0.00 | 0.00 | 33 | 1009.3 |
| 20260509201241 | 23 | 57 | 4.8 | 9.7 | 0.00 | 0.00 | 0.00 | 32 | 1009.3 |
| 20260509200738 | 24 | 141 | 3.2 | 27.4 | 0.00 | 0.00 | 0.00 | 31 | 1009.3 |
| 20260509200237 | 23 | 164 | 19.3 | 25.7 | 0.00 | 0.00 | 0.00 | 32 | 1009.3 |
| 20260509195734 | 22 | 159 | 6.4 | 14.5 | 0.00 | 0.00 | 0.00 | 35 | 1009.5 |
| 20260509195229 | 22 | 149 | 16.1 | 20.9 | 0.00 | 0.00 | 0.00 | 34 | 1009.6 |
| 20260509194724 | 22 | 189 | 17.7 | 20.9 | 0.00 | 0.00 | 0.00 | 34 | 1009.5 |
| 20260509194221 | 22 | 177 | 4.8 | 20.9 | 0.00 | 0.00 | 0.00 | 34 | 1009.5 |
| 20260509193718 | 22 | 197 | 4.8 | 11.3 | 0.00 | 0.00 | 0.00 | 33 | 1009.8 |
| 20260509193217 | 23 | 205 | 8.0 | 12.9 | 0.00 | 0.00 | 0.00 | 34 | 1009.8 |
| 20260509192714 | 23 | 66 | 6.4 | 9.7 | 0.00 | 0.00 | 0.00 | 35 | 1009.6 |
| 20260509192209 | 23 | 298 | 6.4 | 11.3 | 0.00 | 0.00 | 0.00 | 36 | 1009.8 |
| 20260509191705 | 23 | 147 | 3.2 | 14.5 | 0.00 | 0.00 | 0.00 | 37 | 1009.8 |
| 20260509191201 | 23 | 82 | 3.2 | 11.3 | 0.00 | 0.00 | 0.00 | 36 | 1010.2 |
| 20260509190657 | 24 | 136 | 12.9 | 22.5 | 0.00 | 0.00 | 0.00 | 35 | 1010.0 |
| 20260509190155 | 24 | 127 | 3.2 | 9.7 | 0.00 | 0.00 | 0.00 | 36 | 1010.0 |
| 20260509185652 | 23 | 126 | 3.2 | 4.8 | 0.00 | 0.00 | 0.00 | 37 | 1010.1 |
| 20260509185148 | 23 | 140 | 11.3 | 17.7 | 0.00 | 0.00 | 0.00 | 38 | 1010.3 |
| 20260509184646 | 23 | 135 | 6.4 | 22.5 | 0.00 | 0.00 | 0.00 | 37 | 1010.2 |
| 20260509184142 | 23 | 180 | 8.0 | 14.5 | 0.00 | 0.00 | 0.00 | 39 | 1010.0 |
| 20260509183639 | 22 | 165 | 9.7 | 22.5 | 0.00 | 0.00 | 0.00 | 40 | 1010.2 |
| 20260509183134 | 22 | 156 | 6.4 | 17.7 | 0.00 | 0.00 | 0.00 | 40 | 1010.2 |
| 20260509182630 | 22 | 157 | 17.7 | 27.4 | 0.00 | 0.00 | 0.00 | 39 | 1010.3 |
| 20260509182127 | 22 | 162 | 17.7 | 25.7 | 0.00 | 0.00 | 0.00 | 37 | 1010.4 |
| 20260509181625 | 22 | 157 | 8.0 | 14.5 | 0.00 | 0.00 | 0.00 | 39 | 1010.4 |
| 20260509181123 | 22 | 63 | 3.2 | 4.8 | 0.00 | 0.00 | 0.00 | 42 | 1010.4 |
| 20260509180619 | 22 | 146 | 14.5 | 20.9 | 0.00 | 0.00 | 0.00 | 42 | 1010.8 |
| 20260509180116 | 21 | 148 | 16.1 | 20.9 | 0.00 | 0.00 | 0.00 | 44 | 1010.9 |
| 20260509175611 | 21 | 142 | 3.2 | 14.5 | 0.00 | 0.00 | 0.00 | 41 | 1010.8 |
| 20260509175109 | 21 | 161 | 6.4 | 20.9 | 0.00 | 0.00 | 0.00 | 44 | 1010.8 |
| 20260509174605 | 21 | 129 | 8.0 | 17.7 | 0.00 | 0.00 | 0.00 | 42 | 1011.0 |
| 20260509174100 | 21 | 163 | 11.3 | 17.7 | 0.00 | 0.00 | 0.00 | 44 | 1010.8 |
| 20260509173555 | 21 | 160 | 8.0 | 16.1 | 0.00 | 0.00 | 0.00 | 43 | 1011.3 |
| 20260509173051 | 20 | 149 | 14.5 | 20.9 | 0.00 | 0.00 | 0.00 | 49 | 1011.3 |
| 20260509172549 | 20 | 149 | 11.3 | 16.1 | 0.00 | 0.00 | 0.00 | 48 | 1011.3 |
| 20260509172044 | 20 | 135 | 12.9 | 16.1 | 0.00 | 0.00 | 0.00 | 49 | 1011.2 |
| 20260509171540 | 20 | 159 | 17.7 | 24.1 | 0.00 | 0.00 | 0.00 | 48 | 1011.3 |
| 20260509171037 | 20 | 157 | 14.5 | 20.9 | 0.00 | 0.00 | 0.00 | 50 | 1011.2 |
| 20260509170533 | 19 | 138 | 16.1 | 20.9 | 0.00 | 0.00 | 0.00 | 51 | 1011.2 |
| 20260509170029 | 18 | 91 | 3.2 | 11.3 | 0.00 | 0.00 | 0.00 | 53 | 1011.2 |
| 20260509165527 | 18 | 91 | 8.0 | 11.3 | 0.00 | 0.00 | 0.00 | 52 | 1011.2 |
| 20260509165023 | 18 | 82 | 3.2 | 9.7 | 0.00 | 0.00 | 0.00 | 54 | 1011.5 |
| 20260509164520 | 18 | 119 | 4.8 | 9.7 | 0.00 | 0.00 | 0.00 | 53 | 1011.8 |
| 20260509164016 | 18 | 137 | 4.8 | 11.3 | 0.00 | 0.00 | 0.00 | 53 | 1011.7 |
| 20260509163514 | 18 | 101 | 8.0 | 11.3 | 0.00 | 0.00 | 0.00 | 52 | 1011.7 |
| 20260509163014 | 18 | 130 | 11.3 | 16.1 | 0.00 | 0.00 | 0.00 | 52 | 1011.8 |
| 20260509162512 | 18 | 130 | 8.0 | 11.3 | 0.00 | 0.00 | 0.00 | 52 | 1011.8 |
| 20260509162007 | 18 | 133 | 9.7 | 16.1 | 0.00 | 0.00 | 0.00 | 51 | 1011.8 |
| 20260509161504 | 18 | 206 | 6.4 | 14.5 | 0.00 | 0.00 | 0.00 | 52 | 1011.8 |
| 20260509160959 | 18 | 189 | 12.9 | 17.7 | 0.00 | 0.00 | 0.00 | 51 | 1011.8 |
| 20260509160456 | 18 | 155 | 8.0 | 14.5 | 0.00 | 0.00 | 0.00 | 51 | 1011.8 |
| 20260509155956 | 18 | 171 | 11.3 | 16.1 | 0.00 | 0.00 | 0.00 | 51 | 1011.9 |
| 20260509155452 | 18 | 163 | 11.3 | 14.5 | 0.00 | 0.00 | 0.00 | 52 | 1011.4 |
| 20260509154949 | 18 | 144 | 14.5 | 17.7 | 0.00 | 0.00 | 0.00 | 52 | 1011.5 |
| 20260509154445 | 18 | 153 | 11.3 | 16.1 | 0.00 | 0.00 | 0.00 | 53 | 1011.7 |
| 20260509153943 | 18 | 124 | 9.7 | 14.5 | 0.00 | 0.00 | 0.00 | 53 | 1011.5 |
| 20260509153439 | 18 | 153 | 14.5 | 16.1 | 0.00 | 0.00 | 0.00 | 52 | 1011.8 |
| 20260509152936 | 18 | 167 | 6.4 | 14.5 | 0.00 | 0.00 | 0.00 | 53 | 1011.8 |
| 20260509152432 | 18 | 142 | 9.7 | 14.5 | 0.00 | 0.00 | 0.00 | 52 | 1011.7 |
| 20260509151929 | 18 | 140 | 9.7 | 12.9 | 0.00 | 0.00 | 0.00 | 51 | 1011.7 |
| 20260509151425 | 18 | 126 | 3.2 | 11.3 | 0.00 | 0.00 | 0.00 | 52 | 1011.3 |
| 20260509150924 | 18 | 89 | 1.6 | 6.4 | 0.00 | 0.00 | 0.00 | 51 | 1011.3 |
| 20260509150421 | 18 | 77 | 0.0 | 4.8 | 0.00 | 0.00 | 0.00 | 53 | 1011.5 |
| 20260509145919 | 18 | 143 | 6.4 | 11.3 | 0.00 | 0.00 | 0.00 | 52 | 1011.7 |
| 20260509145419 | 18 | 63 | 1.6 | 6.4 | 0.00 | 0.00 | 0.00 | 55 | 1011.4 |
| 20260509144915 | 18 | 94 | 0.0 | 4.8 | 0.00 | 0.00 | 0.00 | 51 | 1011.4 |
| 20260509144412 | 18 | 79 | 1.6 | 4.8 | 0.00 | 0.00 | 0.00 | 51 | 1011.4 |
| 20260509143909 | 18 | 72 | 1.6 | 4.8 | 0.00 | 0.00 | 0.00 | 49 | 1011.5 |
| 20260509143406 | 18 | 90 | 1.6 | 6.4 | 0.00 | 0.00 | 0.00 | 52 | 1011.4 |
| 20260509142902 | 18 | 96 | 3.2 | 4.8 | 0.00 | 0.00 | 0.00 | 55 | 1011.5 |
| 20260509142359 | 18 | 309 | 4.8 | 6.4 | 0.00 | 0.00 | 0.00 | 55 | 1011.4 |
| 20260509141854 | 18 | 111 | 6.4 | 11.3 | 0.00 | 0.00 | 0.00 | 54 | 1011.5 |
| 20260509141352 | 18 | 17 | 1.6 | 3.2 | 0.00 | 0.00 | 0.00 | 53 | 1011.8 |
| 20260509140848 | 17 | 72 | 0.0 | 6.4 | 0.00 | 0.00 | 0.00 | 57 | 1012.0 |
| 20260509140345 | 17 | 91 | 0.0 | 3.2 | 0.00 | 0.00 | 0.00 | 55 | 1012.0 |
| 20260509135843 | 16 | 68 | 1.6 | 1.6 | 0.00 | 0.00 | 0.00 | 58 | 1012.4 |
| 20260509135340 | 15 | 70 | 0.0 | 3.2 | 0.00 | 0.00 | 0.00 | 61 | 1012.4 |
| 20260509134838 | 15 | 12 | 3.2 | 3.2 | 0.00 | 0.00 | 0.00 | 59 | 1012.4 |
| 20260509134335 | 15 | 16 | 3.2 | 3.2 | 0.00 | 0.00 | 0.00 | 60 | 1012.5 |
| 20260509133831 | 15 | 37 | 1.6 | 3.2 | 0.00 | 0.00 | 0.00 | 60 | 1012.6 |
| 20260509133328 | 15 | 75 | 3.2 | 3.2 | 0.00 | 0.00 | 0.00 | 61 | 1012.6 |
| 20260509132827 | 15 | 45 | 1.6 | 1.6 | 0.00 | 0.00 | 0.00 | 63 | 1012.6 |
| 20260509132325 | 14 | 44 | 1.6 | 3.2 | 0.00 | 0.00 | 0.00 | 61 | 1012.8 |
| 20260509131822 | 14 | 88 | 0.0 | 3.2 | 0.00 | 0.00 | 0.00 | 62 | 1012.8 |
| 20260509131318 | 14 | 76 | 1.6 | 3.2 | 0.00 | 0.00 | 0.00 | 62 | 1012.8 |
| 20260509130815 | 13 | 48 | 1.6 | 1.6 | 0.00 | 0.00 | 0.00 | 63 | 1012.8 |
| 20260509130311 | 13 | 81 | 1.6 | 1.6 | 0.00 | 0.00 | 0.00 | 63 | 1012.6 |
| 20260509125807 | 13 | 117 | 3.2 | 3.2 | 0.00 | 0.00 | 0.00 | 61 | 1012.7 |
| 20260509125307 | 13 | 92 | 1.6 | 3.2 | 0.00 | 0.00 | 0.00 | 61 | 1012.7 |
| 20260509124800 | 13 | 74 | 1.6 | 3.2 | 0.00 | 0.00 | 0.00 | 62 | 1012.7 |
| 20260509124257 | 13 | 94 | 1.6 | 1.6 | 0.00 | 0.00 | 0.00 | 63 | 1012.4 |
| 20260509123755 | 12 | 78 | 0.0 | 1.6 | 0.00 | 0.00 | 0.00 | 65 | 1012.5 |
| 20260509123252 | 12 | 81 | 0.0 | 1.6 | 0.00 | 0.00 | 0.00 | 65 | 1012.5 |
| 20260509122748 | 12 | 134 | 0.0 | 1.6 | 0.00 | 0.00 | 0.00 | 67 | 1012.7 |
| 20260509122245 | 12 | 7 | 3.2 | 3.2 | 0.00 | 0.00 | 0.00 | 69 | 1012.5 |
| 20260509121742 | 12 | 24 | 1.6 | 1.6 | 0.00 | 0.00 | 0.00 | 70 | 1012.5 |
| 20260509121239 | 11 | 59 | 1.6 | 1.6 | 0.00 | 0.00 | 0.00 | 68 | 1012.9 |
| 20260509120737 | 11 | 55 | 1.6 | 3.2 | 0.00 | 0.00 | 0.00 | 68 | 1012.8 |
| 20260509120234 | 11 | 32 | 1.6 | 3.2 | 0.00 | 0.00 | 0.00 | 67 | 1012.7 |
| 20260509115733 | 11 | 17 | 1.6 | 3.2 | 0.00 | 0.00 | 0.00 | 67 | 1012.9 |
| 20260509115229 | 11 | 79 | 0.0 | 1.6 | 0.00 | 0.00 | 0.00 | 66 | 1012.8 |
| 20260509114728 | 11 | 31 | 1.6 | 3.2 | 0.00 | 0.00 | 0.00 | 66 | 1012.8 |
| 20260509114226 | 11 | 80 | 0.0 | 0.0 | 0.00 | 0.00 | 0.00 | 64 | 1012.5 |
| 20260509113724 | 11 | 80 | 0.0 | 0.0 | 0.00 | 0.00 | 0.00 | 65 | 1012.7 |
| 20260509113221 | 11 | 79 | 0.0 | 0.0 | 0.00 | 0.00 | 0.00 | 64 | 1012.8 |
| 20260509112718 | 11 | 71 | 0.0 | 0.0 | 0.00 | 0.00 | 0.00 | 69 | 1012.7 |
| 20260509112215 | 11 | 70 | 0.0 | 0.0 | 0.00 | 0.00 | 0.00 | 65 | 1012.7 |
| 20260509111712 | 11 | 71 | 0.0 | 0.0 | 0.00 | 0.00 | 0.00 | 65 | 1012.7 |
| 20260509111209 | 11 | 69 | 0.0 | 0.0 | 0.00 | 0.00 | 0.00 | 65 | 1012.5 |
| 20260509110706 | 10 | 69 | 0.0 | 0.0 | 0.00 | 0.00 | 0.00 | 64 | 1012.6 |
| 20260509110203 | 10 | 69 | 0.0 | 0.0 | 0.00 | 0.00 | 0.00 | 65 | 1012.5 |
| 20260509105701 | 10 | 68 | 0.0 | 0.0 | 0.00 | 0.00 | 0.00 | 66 | 1012.6 |
| 20260509105158 | 10 | 68 | 0.0 | 0.0 | 0.00 | 0.00 | 0.00 | 65 | 1012.4 |
| 20260509104655 | 11 | 68 | 0.0 | 0.0 | 0.00 | 0.00 | 0.00 | 63 | 1012.5 |
| 20260509104152 | 11 | 67 | 0.0 | 0.0 | 0.00 | 0.00 | 0.00 | 64 | 1012.5 |
| 20260509103650 | 10 | 42 | 3.2 | 3.2 | 0.00 | 0.00 | 0.00 | 63 | 1012.5 |
| 20260509103147 | 10 | 45 | 1.6 | 3.2 | 0.00 | 0.00 | 0.00 | 64 | 1012.5 |
| 20260509102645 | 10 | 68 | 0.0 | 0.0 | 0.00 | 0.00 | 0.00 | 65 | 1012.6 |
| 20260509102142 | 10 | 62 | 0.0 | 0.0 | 0.00 | 0.00 | 0.00 | 65 | 1012.6 |
| 20260509101638 | 10 | 55 | 1.6 | 1.6 | 0.00 | 0.00 | 0.00 | 66 | 1012.7 |
| 20260509101135 | 10 | 39 | 1.6 | 1.6 | 0.00 | 0.00 | 0.00 | 68 | 1012.8 |
| 20260509100632 | 10 | 63 | 0.0 | 0.0 | 0.00 | 0.00 | 0.00 | 68 | 1012.6 |
| 20260509100129 | 10 | 61 | 0.0 | 0.0 | 0.00 | 0.00 | 0.00 | 68 | 1012.7 |
| 20260509095626 | 10 | 59 | 1.6 | 1.6 | 0.00 | 0.00 | 0.00 | 68 | 1012.6 |
| 20260509095123 | 10 | 54 | 1.6 | 3.2 | 0.00 | 0.00 | 0.00 | 68 | 1012.7 |
| 20260509094619 | 10 | 327 | 3.2 | 3.2 | 0.00 | 0.00 | 0.00 | 68 | 1012.6 |
| 20260509094117 | 10 | 70 | 0.0 | 1.6 | 0.00 | 0.00 | 0.00 | 66 | 1012.7 |
| 20260509093615 | 10 | 67 | 0.0 | 1.6 | 0.00 | 0.00 | 0.00 | 65 | 1012.5 |
| 20260509093112 | 10 | 67 | 1.6 | 1.6 | 0.00 | 0.00 | 0.00 | 64 | 1012.5 |
| 20260509092609 | 10 | 17 | 1.6 | 3.2 | 0.00 | 0.00 | 0.00 | 65 | 1012.6 |
| 20260509092108 | 10 | 37 | 1.6 | 3.2 | 0.00 | 0.00 | 0.00 | 64 | 1012.6 |
| 20260509091605 | 11 | 26 | 1.6 | 3.2 | 0.00 | 0.00 | 0.00 | 63 | 1012.7 |
| 20260509091101 | 10 | 75 | 0.0 | 3.2 | 0.00 | 0.00 | 0.00 | 62 | 1012.8 |
| 20260509090559 | 10 | 41 | 1.6 | 3.2 | 0.00 | 0.00 | 0.00 | 64 | 1012.8 |
| 20260509090057 | 10 | 28 | 0.0 | 0.0 | 0.00 | 0.00 | 0.00 | 63 | 1012.8 |
| 20260509085554 | 10 | 111 | 0.0 | 0.0 | 0.00 | 0.00 | 0.00 | 64 | 1012.7 |
| 20260509085049 | 10 | 111 | 0.0 | 0.0 | 0.00 | 0.00 | 0.00 | 64 | 1012.8 |
| 20260509084547 | 10 | 111 | 0.0 | 0.0 | 0.00 | 0.00 | 0.00 | 64 | 1012.8 |
| 20260509084044 | 10 | 111 | 0.0 | 0.0 | 0.00 | 0.00 | 0.00 | 62 | 1012.9 |
| 20260509083541 | 11 | 111 | 0.0 | 0.0 | 0.00 | 0.00 | 0.00 | 63 | 1012.7 |
| 20260509083038 | 11 | 111 | 0.0 | 0.0 | 0.00 | 0.00 | 0.00 | 62 | 1013.0 |
| 20260509082536 | 11 | 111 | 0.0 | 0.0 | 0.00 | 0.00 | 0.00 | 60 | 1012.9 |
| 20260509082032 | 11 | 111 | 0.0 | 0.0 | 0.00 | 0.00 | 0.00 | 60 | 1012.9 |
| 20260509081530 | 11 | 111 | 0.0 | 0.0 | 0.00 | 0.00 | 0.00 | 61 | 1013.1 |
| 20260509081026 | 11 | 111 | 0.0 | 0.0 | 0.00 | 0.00 | 0.00 | 60 | 1013.0 |
| 20260509080524 | 11 | 111 | 0.0 | 0.0 | 0.00 | 0.00 | 0.00 | 60 | 1013.1 |
| 20260509080022 | 11 | 111 | 0.0 | 0.0 | 0.00 | 0.00 | 0.00 | 61 | 1013.1 |
| 20260509075519 | 11 | 111 | 0.0 | 0.0 | 0.00 | 0.00 | 0.00 | 61 | 1013.1 |
| 20260509075017 | 11 | 111 | 0.0 | 0.0 | 0.00 | 0.00 | 0.00 | 61 | 1013.1 |
| 20260509074514 | 11 | 111 | 0.0 | 0.0 | 0.00 | 0.00 | 0.00 | 61 | 1013.1 |
| 20260509074010 | 11 | 111 | 0.0 | 0.0 | 0.00 | 0.00 | 0.00 | 61 | 1013.2 |
| 20260509073507 | 10 | 111 | 0.0 | 0.0 | 0.00 | 0.00 | 0.00 | 62 | 1013.2 |
| 20260509073003 | 10 | 111 | 0.0 | 0.0 | 0.00 | 0.00 | 0.00 | 64 | 1013.3 |
| 20260509072500 | 10 | 111 | 0.0 | 0.0 | 0.00 | 0.00 | 0.00 | 64 | 1013.4 |
| 20260509071957 | 10 | 111 | 0.0 | 0.0 | 0.00 | 0.00 | 0.00 | 67 | 1013.5 |